Starlink 31438

operational
NORAD ID: 59234 Int'l Des: 2024-049 Owner: SPXS Country: US Constellation: starlink
LEOCIRCULAR

关于 Starlink 31438

正在加载描述...

实时位置

正在加载3D地球...

即将过境

高度历史

Altitude vs Time

uPlot chart will show altitude changes over time

两行轨道根数

1 59234U 24049D 25350.97794026 .00001989 00000-0 81789-4 0 9995
2 59234 43.0000 239.6394 0001321 272.4936 87.5764 15.27583731 99870
Epoch: Dec 16, 2025 • Age: 11 hours

当前状态

高度 484.7 km
速度 7.63 km/s
星下点 32.39°N, 33.06°E
发射日期 Mar 16, 2024
运行时间 1.7 years
类型 internet

技术详情

分类 Payload
质量 730.00 kg
干质量 700.00 kg
总质量 730.00 kg
长度 0.30 m
直径 4.10 m
跨度 29.00 m
形状 Box + pan
制造商 SPXS
平台类型 Starlink V2M
阶段状态 In Orbit
所有者/国家 SPXS/US

大型星座

Loading constellations...